ギャラッド彗星

C/2007 Q1 ( Garradd )

English version
Home page
Updated on May 3, 2020

---------------------------------------------------------------------

・ プロフィール

発見日 2007年8月21日
発見光度 19.4等
発見者 G. J. Garradd (Siding Spring Survey)

・ 軌道要素

Epoch 2006 Dec. 11.0 TT = JDT 2454080.5                                         
T 2006 Dec. 11.21544 TT                                 Rudenko                 
q   2.9893019            (2000.0)            P               Q                  
z  -0.0003247      Peri.  282.13015     +0.22296287     +0.96951422             
 +/-0.0000950      Node     5.89067     +0.28095557     +0.03592573             
e   1.0009706      Incl.   82.01446     -0.93346212     +0.24238713             
From 45 observations 2007 Aug. 21-Nov. 10, mean residual 0".6.                  

・ 光度変化

        m1 = 11.0 + 5 logΔ + 10.0 log r

---------------------------------------------------------------------

軌道要素はM.P.E.C. 2020-H235に掲載されたものです。
光度グラフはComet for Windowsで作成したものです。

---------------------------------------------------------------------

Copyright(C) Seiichi Yoshida (comet@aerith.net). All rights reserved.